SCP
0 0 -0 -0 0 0 -0 -0 0 0 -0 -0 -0 -0 -0 -0 -0 -0 -0 -0 0 0 0 0 0 0 0 0 0 0 0 0 0 0 0 0 0 0 0 0 0 0 0 0
0 0 0 0 0 0 0 -0 -0 -0 0 -0 -0 -0 -0 -0 -0 -0 -0 -0 0 0 0 0 0 0 0 0 0 0 0 0 0 0 0 0 0 0 0 0 0 0 0 0
0 0 0 0 0 0 0 -0 -0 -0 -0 0 -0 -0 -0 -0 -0 -0 -0 0 0 0 0 0 0 0 0 0 0 0 0 0 0 0 0 0 0 0 0 0 0 0 0 0
0 0 0 0 0 0 0 0 0 0 -0 0 -0 -0 -0 -0 -0 -0 0 0 0 0 0 0 0 0 0 0 0 0 0 0 0 0 0 0 0 0 0 0 0 0 0 -0
0 0 0 0 0 0 0 0 0 0 0 0 0 0 0 -0 -0 -0 0 0 0 0 0 0 0 0 0 0 0 0 0 0 0 0 0 0 0 0 0 0 0 0 0 0
0 0 0 0 0 0 0 0 0 0 0 0 0 0 0 -0 -0 -0 0 0 0 0 0 0 0 0 0 0 0 0 0 0 0 0 0 0 0 0 0 0 0 0 0 0
0 0 0 0 0 0 0 0 0 0 0 0 0 0 0 0 0 0 0 0 0 0 0 0 0 0 0 0 0 0 0 0 0 0 0 0 0 0 0 0 0 0 0 0
0 0 0 0 0 0 0 0 0 0 0 0 0 0 0 0 0 0 0 0 0 0 0 0 0 0 0 0 0 0 0 0 0 0 0 0 0 0 0 0 0 0 0 0
0 0 0 0 0 0 0 0 0 0 0 0 0 0 0 0 0 0 0 0 0 0 0 0 0 0 0 0 0 0 0 0 0 0 0 0 0 0 0 0 0 0 0 0
0 0 0 0 0 0 0 0 0 0 0 0 0 0 0 0 0 0 0 0 0 0 0 0 0 0 0 0 0 0 0 0 0 0 0 0 0 0 0 0 0 0 0 0
0 0 0 0 0 0 0 0 0 0 0 0 0 0 0 0 0 0 0 0 0 0 0 0 0 0 0 0 0 0 0 0 0 0 0 0 0 0 0 0 0 0 0 0
0 0 0 0 0 0 0 0 0 0 0 0 0 0 0 0 0 0 0 0 0 0 0 0 0 0 0 0 0 0 0 0 0 0 0 0 0 0 0 0 0 0 0 0
0 0 0 0 0 0 0 0 0 0 0 0 0 0 0 0 0 0 0 0 0 0 0 0 0 0 0 0 0 0 0 0 0 0 0 0 0 0 0 0 0 0 0 0
0 0 0 0 0 0 0 0 0 0 0 0 0 0 0 0 0 0 0 0 0 0 0 0 0 0 0 0 0 0 0 0 0 0 0 0 0 0 0 0 0 0 0 0
0 0 0 0 0 0 0 0 0 0 0 0 0 0 0 0 0 0 0 0 0 0 0 0 0 0 0 0 0 0 0 0 0 0 0 0 0 0 0 0 0 0 0 0
0 0 0 0 0 0 0 0 0 0 0 0 0 0 0 0 0 0 0 0 0 0 0 0 0 0 0 0 0 0 0 0 0 0 0 0 0 0 0 0 0 0 0 0
0 0 0 0 0 0 0 0 0 0 0 0 0 0 0 0 0 0 0 0 0 0 0 0 0 0 0 0 0 0 0 0 0 0 0 0 0 0 0 0 0 0 0 0
0 0 0 0 0 0 0 0 0 0 0 0 0 0 0 0 0 0 0 0 0 0 0 0 0 0 0 0 0 0 0 0 0 0 0 0 0 0 0 0 0 0 0 0
0 0 0 0 0 0 0 0 0 0 0 0 0 0 0 0 0 0 0 0 0 0 0 0 0 0 0 0 0 0 0 0 0 0 0 0 0 0 0 0 0 0 0 0
0 0 0 0 0 0 0 0 0 0 0 0 0 0 0 0 0 0 0 0 0 0 0 0 0 0 0 0 0 0 0 0 0 0 0 0 0 0 0 0 0 0 0 0
0 0 0 0 0 0 0 0 0 0 0 0 0 0 0 0 0 0 0 0 0 0 0 0 0 0 0 0 0 0 0 0 0 0 0 0 0 0 0 0 0 0 0 0
0 0 0 0 0 0 0 0 0 0 0 0 0 0 0 0 0 0 0 0 0 0 0 0 0 0 0 0 0 0 0 0 0 0 0 0 0 0 0 0 0 0 0 0
0 0 0 0 0 0 0 0 0 0 0 0 0 0 0 0 0 0 0 0 0 0 0 0 0 0 0 0 0 0 0 0 0 0 0 0 0 0 0 0 0 0 0 0
0 0 0 0 0 0 0 0 0 0 0 0 0 0 0 0 0 0 0 0 0 0 0 0 0 0 0 0 0 0 0 0 0 0 0 0 0 0 0 0 0 0 0 0
0 0 0 0 0 0 0 0 0 0 0 0 0 0 0 0 0 0 0 0 0 0 0 0 0 0 0 0 0 0 0 0 0 0 0 0 0 0 0 0 0 0 0 0
0 0 0 0 0 0 0 0 0 0 0 0 0 0 0 0 0 0 0 0 0 0 0 0 0 0 0 0 0 0 0 0 0 0 0 0 0 0 0 0 0 0 0 0
Wind_Speed_500mb
16 16 24 32 7 24 13 29 22 22 25 23 14 27 28 37 34 34 31 28 25 24 18 16 12 13 8 13 13 16 20 21 20 23 20 21 19 26 27 31 41 39 35 34
16 9 11 9 4 11 18 15 21 11 11 10 17 25 30 40 38 38 35 32 30 28 23 18 13 11 9 7 11 12 15 18 16 21 17 16 23 22 23 27 30 36 37 37
10 14 6 2 9 12 12 17 15 10 16 19 17 25 34 38 40 39 36 34 32 30 27 21 16 12 9 6 8 6 10 12 18 25 15 19 17 20 23 26 32 32 42 40
12 3 4 12 12 15 13 15 4 12 18 5 25 14 38 38 36 43 41 34 33 30 26 24 20 16 13 7 5 5 7 9 13 15 16 20 18 19 21 24 25 28 33 39
5 6 8 15 11 14 12 8 7 11 18 17 19 11 29 40 35 33 43 41 34 34 30 23 19 19 11 14 7 8 3 5 8 13 15 16 19 19 21 22 25 23 28 34
8 6 13 13 10 7 8 7 5 5 14 12 32 16 20 32 35 36 46 45 42 36 33 27 22 20 21 15 11 7 3 1 9 13 15 18 20 25 29 26 31 29 32 31
12 4 4 11 12 5 12 10 4 9 8 9 10 8 17 18 22 33 49 52 50 45 40 33 27 23 19 14 10 7 2 4 10 13 17 21 25 28 33 33 35 36 39 39
14 7 8 3 7 5 16 15 5 8 5 8 14 12 7 21 16 7 12 54 53 48 43 36 29 25 23 16 10 5 5 8 11 17 20 22 26 29 30 32 41 43 42 42
12 10 6 7 7 9 11 7 12 7 13 7 10 10 6 19 20 16 13 30 48 47 43 37 31 27 19 17 14 12 10 13 17 19 23 25 24 27 30 33 34 33 38 42
5 8 7 6 6 7 8 11 4 5 2 6 12 22 2 26 23 19 23 21 43 47 45 39 33 28 21 16 12 8 9 9 14 16 18 17 23 25 29 32 33 36 41 46
4 7 7 4 14 16 6 4 5 7 7 4 6 2 12 19 20 21 24 26 29 44 42 36 31 23 22 15 10 9 5 4 9 10 15 20 29 32 35 36 36 39 44 45
3 5 8 10 6 8 10 17 16 6 8 6 7 7 7 13 15 18 20 21 23 36 37 33 29 24 16 13 7 6 2 4 7 10 15 21 35 39 39 39 40 40 42 45
12 8 5 6 7 5 8 6 9 3 4 10 5 4 9 9 8 9 18 19 25 30 33 28 25 16 14 11 9 4 5 6 14 13 17 21 35 40 43 41 44 47 49 48
4 6 10 6 6 8 4 6 6 9 6 4 24 21 16 18 16 21 20 22 27 27 30 23 20 16 13 9 5 3 6 11 17 20 23 27 33 38 40 41 44 48 48 52
5 6 2 5 12 13 13 11 23 18 30 12 18 26 15 17 18 23 23 22 24 21 21 21 18 15 11 8 4 4 7 15 21 28 30 30 34 38 40 44 48 48 51 50
10 5 5 6 21 19 21 22 26 31 36 39 40 43 40 10 17 21 20 25 26 25 21 20 19 14 10 5 3 6 11 18 24 28 32 33 37 41 43 47 49 51 52 57
14 4 4 5 4 10 13 34 36 33 23 34 30 28 33 12 21 19 19 23 26 23 22 18 16 12 9 5 5 9 17 23 27 30 35 37 40 43 46 48 51 53 55 56
11 11 3 3 2 7 12 4 8 21 29 31 27 19 13 8 28 21 20 23 24 24 22 19 15 11 5 5 10 18 22 26 31 36 39 39 40 46 46 50 51 54 57 58
15 9 3 5 10 19 25 12 4 9 12 17 22 16 13 11 25 20 19 20 23 24 21 22 17 13 4 10 17 23 27 32 35 38 40 41 44 46 49 51 54 54 56 59
12 11 8 6 7 8 6 8 2 1 5 14 19 16 33 27 10 17 23 24 26 24 20 14 9 3 9 16 24 28 33 37 39 40 43 44 45 48 52 54 55 55 56 63
8 4 9 7 9 12 13 11 5 4 4 12 9 34 38 15 10 38 33 27 23 18 14 8 3 9 15 23 29 34 37 41 41 43 45 46 47 51 54 58 54 57 59 62
16 15 8 9 5 13 14 8 6 8 8 7 17 32 36 37 35 33 28 24 20 14 7 4 11 17 23 28 33 37 40 42 44 46 46 48 50 53 57 57 57 57 59 60
10 9 8 16 7 9 6 14 9 6 14 13 23 32 38 34 29 27 24 19 13 7 3 10 17 24 27 33 34 40 43 44 46 48 51 52 54 56 55 56 55 57 57 59
13 11 2 4 12 15 14 9 7 13 17 19 27 32 30 31 26 23 18 13 5 3 10 17 22 27 32 34 36 41 45 46 49 53 55 55 58 55 52 52 53 56 58 60
3 17 12 12 8 15 11 13 14 21 25 27 27 28 29 28 21 17 14 6 3 9 13 21 26 30 33 37 40 42 45 48 52 54 57 61 58 55 56 53 62 59 61 61
18 12 8 6 16 18 29 24 25 29 28 29 32 30 25 25 20 14 8 1 6 13 19 23 27 32 36 38 42 44 45 49 54 60 62 62 59 59 59 57 62 64 63 64
Wind_Direction_500mb
208 180 174 181 338 302 182 126 172 139 162 200 186 139 171 186 185 187 178 172 173 159 159 149 134 121 88 85 60 59 31 49 52 38 31 36 35 25 14 13 358 6 14 24
185 105 49 64 329 281 106 166 113 122 192 271 189 157 175 187 197 188 187 185 175 157 167 163 158 147 136 99 86 46 46 25 75 39 37 17 36 26 18 11 1 355 13 18
188 77 17 141 193 189 159 170 166 193 187 251 192 187 185 189 200 198 199 191 183 179 183 172 174 173 144 151 97 55 53 27 52 64 40 53 44 18 19 12 10 1 3 13
60 78 96 209 144 357 157 56 180 152 197 261 204 271 186 188 196 202 197 199 190 189 187 181 180 179 170 176 157 117 79 74 18 61 35 38 32 18 10 359 6 0 356 359
66 140 200 204 68 350 87 151 209 204 244 316 204 251 220 179 199 199 200 198 198 190 187 188 187 185 185 182 177 172 126 37 10 24 17 20 2 359 347 344 356 339 352 346
72 35 19 34 113 5 130 163 215 264 257 262 251 209 149 179 198 198 198 197 198 197 189 192 187 180 192 219 190 179 146 312 334 341 342 342 339 335 330 340 336 327 332 330
146 75 14 307 120 149 218 198 220 226 183 247 67 190 270 118 176 197 188 190 192 194 190 189 188 188 194 186 189 207 165 316 320 328 334 331 327 324 326 322 321 312 311 311
176 195 177 160 356 291 220 215 171 266 261 322 145 236 127 125 127 98 178 183 184 186 188 190 199 196 192 193 205 228 235 290 302 316 312 306 305 312 307 306 298 303 313 310
199 123 85 339 352 327 192 240 353 290 294 278 256 122 140 144 151 161 175 174 174 182 184 190 202 194 197 197 214 232 250 292 306 293 289 298 294 294 295 298 304 303 297 296
355 111 189 126 307 251 316 335 177 31 114 247 265 272 157 175 175 178 184 200 174 179 182 189 200 194 199 216 216 251 259 290 301 310 313 306 299 301 307 310 310 304 301 300
158 102 147 93 210 198 191 230 238 191 233 274 311 351 355 171 187 171 190 184 189 176 181 188 194 200 202 205 235 277 262 309 314 336 321 313 306 309 314 315 311 311 307 309
125 87 174 204 75 341 318 226 199 154 248 243 316 280 43 58 77 150 172 170 184 171 178 185 192 190 188 194 185 239 274 306 313 322 312 305 304 317 319 320 319 314 313 309
147 172 124 218 199 220 235 216 94 49 350 238 192 240 129 133 159 182 149 169 167 173 173 178 165 164 165 168 174 221 242 274 291 318 318 320 317 322 321 321 315 313 314 316
145 243 202 211 87 109 241 217 143 135 196 244 242 270 195 199 198 178 163 167 166 174 156 152 143 137 141 143 163 217 285 301 312 320 325 326 321 318 320 316 314 316 321 319
228 240 221 249 255 205 218 214 193 198 223 210 261 256 298 180 179 169 160 164 151 159 155 143 142 152 152 160 196 257 307 320 322 325 324 323 320 312 315 314 317 321 320 323
204 267 250 262 245 236 259 248 222 215 241 250 262 273 296 139 144 152 170 176 166 159 156 160 152 155 164 170 249 320 321 322 325 321 320 317 317 316 316 319 321 320 321 320
181 212 152 251 342 311 291 237 235 224 217 220 242 258 277 157 151 152 167 167 161 165 160 161 162 167 179 204 296 311 320 320 321 319 316 318 313 316 318 317 319 322 323 324
210 171 161 279 133 251 256 122 253 248 250 229 238 261 348 47 141 151 165 167 162 160 166 163 165 171 187 267 296 314 323 324 324 319 317 312 311 314 315 317 319 318 319 321
228 139 201 184 221 285 299 188 211 221 292 235 226 242 159 109 125 116 152 164 162 162 166 174 180 200 259 302 314 319 323 321 318 318 314 311 313 313 315 315 317 318 320 318
212 211 198 183 238 255 72 107 48 35 241 359 317 159 127 126 173 170 159 153 151 154 159 154 168 251 309 312 315 315 313 313 315 314 312 312 312 313 313 314 315 316 317 321
179 197 205 243 254 282 107 135 154 208 43 6 5 122 126 121 83 124 139 141 145 150 154 166 271 304 311 307 310 309 310 310 310 311 311 311 312 313 312 315 313 316 320 321
171 166 184 191 212 260 129 149 228 89 86 87 101 123 122 120 120 125 134 142 152 160 183 285 297 308 309 310 309 311 311 310 310 312 309 310 310 312 313 313 315 317 319 319
199 199 175 192 216 128 136 93 100 129 130 130 127 126 126 131 134 137 142 148 156 165 254 297 304 308 307 309 312 313 313 313 311 310 308 307 308 311 311 313 315 317 318 319
225 157 186 54 190 180 148 123 146 140 126 119 135 129 138 137 143 144 144 153 163 288 303 307 308 310 312 314 316 314 316 314 312 310 309 311 311 311 312 314 314 315 317 317
122 149 211 227 182 118 178 170 155 126 125 125 124 133 137 139 142 143 132 129 310 310 308 314 315 315 315 318 319 319 318 317 316 316 317 316 313 312 315 311 309 308 312 309
177 188 194 230 202 189 164 150 145 134 132 129 129 126 127 129 119 123 119 25 310 321 329 319 318 318 320 321 320 320 318 315 313 314 315 313 313 312 313 314 315 314 312 314
Wind_Speed_850mb
16 16 24 32 7 24 13 29 22 22 25 23 14 27 28 37 34 34 31 28 25 24 18 16 12 13 8 13 13 16 20 21 20 23 20 21 19 26 27 31 41 39 35 34
16 9 11 9 4 11 18 15 21 11 11 10 17 25 30 40 38 38 35 32 30 28 23 18 13 11 9 7 11 12 15 18 16 21 17 16 23 22 23 27 30 36 37 37
10 14 6 2 9 12 12 17 15 10 16 19 17 25 34 38 40 39 36 34 32 30 27 21 16 12 9 6 8 6 10 12 18 25 15 19 17 20 23 26 32 32 42 40
12 3 4 12 12 15 13 15 4 12 18 5 25 14 38 38 36 43 41 34 33 30 26 24 20 16 13 7 5 5 7 9 13 15 16 20 18 19 21 24 25 28 33 39
5 6 8 15 11 14 12 8 7 11 18 17 19 11 29 40 35 33 43 41 34 34 30 23 19 19 11 14 7 8 3 5 8 13 15 16 19 19 21 22 25 23 28 34
8 6 13 13 10 7 8 7 5 5 14 12 32 16 20 32 35 36 46 45 42 36 33 27 22 20 21 15 11 7 3 1 9 13 15 18 20 25 29 26 31 29 32 31
12 4 4 11 12 5 12 10 4 9 8 9 10 8 17 18 22 33 49 52 50 45 40 33 27 23 19 14 10 7 2 4 10 13 17 21 25 28 33 33 35 36 39 39
14 7 8 3 7 5 16 15 5 8 5 8 14 12 7 21 16 7 12 54 53 48 43 36 29 25 23 16 10 5 5 8 11 17 20 22 26 29 30 32 41 43 42 42
12 10 6 7 7 9 11 7 12 7 13 7 10 10 6 19 20 16 13 30 48 47 43 37 31 27 19 17 14 12 10 13 17 19 23 25 24 27 30 33 34 33 38 42
5 8 7 6 6 7 8 11 4 5 2 6 12 22 2 26 23 19 23 21 43 47 45 39 33 28 21 16 12 8 9 9 14 16 18 17 23 25 29 32 33 36 41 46
4 7 7 4 14 16 6 4 5 7 7 4 6 2 12 19 20 21 24 26 29 44 42 36 31 23 22 15 10 9 5 4 9 10 15 20 29 32 35 36 36 39 44 45
3 5 8 10 6 8 10 17 16 6 8 6 7 7 7 13 15 18 20 21 23 36 37 33 29 24 16 13 7 6 2 4 7 10 15 21 35 39 39 39 40 40 42 45
12 8 5 6 7 5 8 6 9 3 4 10 5 4 9 9 8 9 18 19 25 30 33 28 25 16 14 11 9 4 5 6 14 13 17 21 35 40 43 41 44 47 49 48
4 6 10 6 6 8 4 6 6 9 6 4 24 21 16 18 16 21 20 22 27 27 30 23 20 16 13 9 5 3 6 11 17 20 23 27 33 38 40 41 44 48 48 52
5 6 2 5 12 13 13 11 23 18 30 12 18 26 15 17 18 23 23 22 24 21 21 21 18 15 11 8 4 4 7 15 21 28 30 30 34 38 40 44 48 48 51 50
10 5 5 6 21 19 21 22 26 31 36 39 40 43 40 10 17 21 20 25 26 25 21 20 19 14 10 5 3 6 11 18 24 28 32 33 37 41 43 47 49 51 52 57
14 4 4 5 4 10 13 34 36 33 23 34 30 28 33 12 21 19 19 23 26 23 22 18 16 12 9 5 5 9 17 23 27 30 35 37 40 43 46 48 51 53 55 56
11 11 3 3 2 7 12 4 8 21 29 31 27 19 13 8 28 21 20 23 24 24 22 19 15 11 5 5 10 18 22 26 31 36 39 39 40 46 46 50 51 54 57 58
15 9 3 5 10 19 25 12 4 9 12 17 22 16 13 11 25 20 19 20 23 24 21 22 17 13 4 10 17 23 27 32 35 38 40 41 44 46 49 51 54 54 56 59
12 11 8 6 7 8 6 8 2 1 5 14 19 16 33 27 10 17 23 24 26 24 20 14 9 3 9 16 24 28 33 37 39 40 43 44 45 48 52 54 55 55 56 63
8 4 9 7 9 12 13 11 5 4 4 12 9 34 38 15 10 38 33 27 23 18 14 8 3 9 15 23 29 34 37 41 41 43 45 46 47 51 54 58 54 57 59 62
16 15 8 9 5 13 14 8 6 8 8 7 17 32 36 37 35 33 28 24 20 14 7 4 11 17 23 28 33 37 40 42 44 46 46 48 50 53 57 57 57 57 59 60
10 9 8 16 7 9 6 14 9 6 14 13 23 32 38 34 29 27 24 19 13 7 3 10 17 24 27 33 34 40 43 44 46 48 51 52 54 56 55 56 55 57 57 59
13 11 2 4 12 15 14 9 7 13 17 19 27 32 30 31 26 23 18 13 5 3 10 17 22 27 32 34 36 41 45 46 49 53 55 55 58 55 52 52 53 56 58 60
3 17 12 12 8 15 11 13 14 21 25 27 27 28 29 28 21 17 14 6 3 9 13 21 26 30 33 37 40 42 45 48 52 54 57 61 58 55 56 53 62 59 61 61
18 12 8 6 16 18 29 24 25 29 28 29 32 30 25 25 20 14 8 1 6 13 19 23 27 32 36 38 42 44 45 49 54 60 62 62 59 59 59 57 62 64 63 64
Wind_Direction_850mb
208 180 174 181 338 302 182 126 172 139 162 200 186 139 171 186 185 187 178 172 173 159 159 149 134 121 88 85 60 59 31 49 52 38 31 36 35 25 14 13 358 6 14 24
185 105 49 64 329 281 106 166 113 122 192 271 189 157 175 187 197 188 187 185 175 157 167 163 158 147 136 99 86 46 46 25 75 39 37 17 36 26 18 11 1 355 13 18
188 77 17 141 193 189 159 170 166 193 187 251 192 187 185 189 200 198 199 191 183 179 183 172 174 173 144 151 97 55 53 27 52 64 40 53 44 18 19 12 10 1 3 13
60 78 96 209 144 357 157 56 180 152 197 261 204 271 186 188 196 202 197 199 190 189 187 181 180 179 170 176 157 117 79 74 18 61 35 38 32 18 10 359 6 0 356 359
66 140 200 204 68 350 87 151 209 204 244 316 204 251 220 179 199 199 200 198 198 190 187 188 187 185 185 182 177 172 126 37 10 24 17 20 2 359 347 344 356 339 352 346
72 35 19 34 113 5 130 163 215 264 257 262 251 209 149 179 198 198 198 197 198 197 189 192 187 180 192 219 190 179 146 312 334 341 342 342 339 335 330 340 336 327 332 330
146 75 14 307 120 149 218 198 220 226 183 247 67 190 270 118 176 197 188 190 192 194 190 189 188 188 194 186 189 207 165 316 320 328 334 331 327 324 326 322 321 312 311 311
176 195 177 160 356 291 220 215 171 266 261 322 145 236 127 125 127 98 178 183 184 186 188 190 199 196 192 193 205 228 235 290 302 316 312 306 305 312 307 306 298 303 313 310
199 123 85 339 352 327 192 240 353 290 294 278 256 122 140 144 151 161 175 174 174 182 184 190 202 194 197 197 214 232 250 292 306 293 289 298 294 294 295 298 304 303 297 296
355 111 189 126 307 251 316 335 177 31 114 247 265 272 157 175 175 178 184 200 174 179 182 189 200 194 199 216 216 251 259 290 301 310 313 306 299 301 307 310 310 304 301 300
158 102 147 93 210 198 191 230 238 191 233 274 311 351 355 171 187 171 190 184 189 176 181 188 194 200 202 205 235 277 262 309 314 336 321 313 306 309 314 315 311 311 307 309
125 87 174 204 75 341 318 226 199 154 248 243 316 280 43 58 77 150 172 170 184 171 178 185 192 190 188 194 185 239 274 306 313 322 312 305 304 317 319 320 319 314 313 309
147 172 124 218 199 220 235 216 94 49 350 238 192 240 129 133 159 182 149 169 167 173 173 178 165 164 165 168 174 221 242 274 291 318 318 320 317 322 321 321 315 313 314 316
145 243 202 211 87 109 241 217 143 135 196 244 242 270 195 199 198 178 163 167 166 174 156 152 143 137 141 143 163 217 285 301 312 320 325 326 321 318 320 316 314 316 321 319
228 240 221 249 255 205 218 214 193 198 223 210 261 256 298 180 179 169 160 164 151 159 155 143 142 152 152 160 196 257 307 320 322 325 324 323 320 312 315 314 317 321 320 323
204 267 250 262 245 236 259 248 222 215 241 250 262 273 296 139 144 152 170 176 166 159 156 160 152 155 164 170 249 320 321 322 325 321 320 317 317 316 316 319 321 320 321 320
181 212 152 251 342 311 291 237 235 224 217 220 242 258 277 157 151 152 167 167 161 165 160 161 162 167 179 204 296 311 320 320 321 319 316 318 313 316 318 317 319 322 323 324
210 171 161 279 133 251 256 122 253 248 250 229 238 261 348 47 141 151 165 167 162 160 166 163 165 171 187 267 296 314 323 324 324 319 317 312 311 314 315 317 319 318 319 321
228 139 201 184 221 285 299 188 211 221 292 235 226 242 159 109 125 116 152 164 162 162 166 174 180 200 259 302 314 319 323 321 318 318 314 311 313 313 315 315 317 318 320 318
212 211 198 183 238 255 72 107 48 35 241 359 317 159 127 126 173 170 159 153 151 154 159 154 168 251 309 312 315 315 313 313 315 314 312 312 312 313 313 314 315 316 317 321
179 197 205 243 254 282 107 135 154 208 43 6 5 122 126 121 83 124 139 141 145 150 154 166 271 304 311 307 310 309 310 310 310 311 311 311 312 313 312 315 313 316 320 321
171 166 184 191 212 260 129 149 228 89 86 87 101 123 122 120 120 125 134 142 152 160 183 285 297 308 309 310 309 311 311 310 310 312 309 310 310 312 313 313 315 317 319 319
199 199 175 192 216 128 136 93 100 129 130 130 127 126 126 131 134 137 142 148 156 165 254 297 304 308 307 309 312 313 313 313 311 310 308 307 308 311 311 313 315 317 318 319
225 157 186 54 190 180 148 123 146 140 126 119 135 129 138 137 143 144 144 153 163 288 303 307 308 310 312 314 316 314 316 314 312 310 309 311 311 311 312 314 314 315 317 317
122 149 211 227 182 118 178 170 155 126 125 125 124 133 137 139 142 143 132 129 310 310 308 314 315 315 315 318 319 319 318 317 316 316 317 316 313 312 315 311 309 308 312 309
177 188 194 230 202 189 164 150 145 134 132 129 129 126 127 129 119 123 119 25 310 321 329 319 318 318 320 321 320 320 318 315 313 314 315 313 313 312 313 314 315 314 312 314